[[{"header":{"parameterUnit":"m.s-1","parameterCategory":1,"la1":30.2992,"la2":30.254,"lo1":-89.0895,"lo2":-89.0443,"dy":0.0025,"dx":0.0025,"nx":19,"ny":19,"refTime":"2026-05-10T03:00:00:Z","depth":0,"parameterNumber":2,"parameterNumberName":"U-component_of_WINDS"},"data":[0,0,0,-1.3734,-1.3733,-1.3658,-1.3657,-1.3583,-1.3583,0,0,0,0,0,0,0,0,0,0,0,-1.377,-1.377,-1.3734,-1.3732,-1.3658,-1.3657,-1.3584,-1.3583,0,0,0,0,0,0,0,0,0,0,0,-1.377,-1.377,-1.377,-1.3732,-1.3658,-1.3657,-1.3584,-1.3632,0,0,0,0,0,0,0,0,0,0,-1.3701,-1.3748,-1.377,-1.377,-1.3732,-1.3658,-1.3657,-1.3634,-1.3629,-1.3627,0,-1.363,0,-1.3606,-1.358,-1.3579,0,0,0,-1.3721,-1.3753,-1.372,-1.377,-1.3731,-1.3658,-1.3688,-1.3631,-1.3625,-1.3621,-1.3629,-1.3625,-1.3604,-1.3579,-1.3579,-1.3607,-1.3608,0,0,-1.3726,-1.3764,-1.3724,-1.3717,-1.3731,-1.3691,-1.3686,-1.3627,-1.3638,-1.3628,-1.3623,-1.3603,-1.3579,-1.3579,-1.3606,-1.3607,0,0,0,-1.3745,-1.3767,-1.3735,-1.3721,-1.3706,-1.3689,-1.3684,-1.3641,-1.3627,-1.3622,-1.3602,-1.3579,-1.3578,-1.3606,-1.3607,-1.3675,0,0,0,-1.3747,-1.3778,-1.3738,-1.376,-1.3707,-1.3672,-1.3699,-1.3631,-1.3623,-1.3603,-1.3579,-1.3577,-1.3605,-1.3606,-1.3671,-1.3699,0,0,0,-1.377,-1.3781,-1.3775,-1.3763,-1.3732,-1.3672,-1.3655,-1.3629,-1.3612,-1.3579,-1.3577,-1.3604,-1.3606,-1.3668,-1.3694,-1.3717,0,0,0,-1.3805,-1.3836,-1.3777,-1.3804,-1.3733,-1.3717,-1.3655,-1.3641,-1.3621,-1.3578,-1.3605,-1.3607,-1.3667,-1.3691,-1.3714,-1.374,-1.3756,0,0,-1.3865,-1.3845,-1.3858,-1.3802,-1.3806,-1.3725,-1.3738,-1.3683,-1.3645,-1.3622,-1.3622,-1.3672,-1.3694,-1.3716,-1.3835,-1.3848,0,0,0,-1.389,-1.3899,-1.3892,-1.3876,-1.3837,-1.3804,-1.3744,-1.3724,-1.3703,-1.3641,-1.3687,-1.3698,-1.371,-1.3721,-1.3731,-1.3738,-1.3614,-1.3614,-1.3614,-1.4027,-1.3978,-1.3996,-1.3938,-1.3924,-1.3862,-1.3845,-1.3808,-1.3761,-1.3774,-1.3765,-1.3844,-1.3858,-1.3866,-1.3873,-1.3778,-1.3778,-1.3778,-1.3778,-1.4108,-1.4113,-1.4053,-1.4049,-1.3997,-1.3992,-1.3935,-1.3903,-1.389,-1.3846,-1.3853,-1.3806,-1.3881,-1.3885,-1.3783,-1.3782,-1.3782,-1.3781,-1.3781,-1.419,-1.4183,-1.416,-1.4133,-1.4118,-1.4059,-1.405,-1.4003,-1.3959,-1.3966,-1.3951,-1.395,-1.3941,-1.3963,-1.3964,-1.3964,-1.3964,-1.3964,-1.3965,-1.4282,-1.4254,-1.4253,-1.4215,-1.4199,-1.4172,-1.4114,-1.4096,-1.4065,-1.4031,-1.4031,-1.3982,-1.3899,-1.3878,-1.3968,-1.3968,-1.3967,-1.3967,-1.3967,-1.4377,-1.4349,-1.4347,-1.4331,-1.4283,-1.4271,-1.4213,-1.4182,-1.4161,-1.4158,-1.411,-1.4057,-1.4031,-1.4022,-1.4004,-1.4122,-1.4122,-1.4122,-1.4122,-1.4444,-1.4428,-1.4415,-1.4393,-1.4366,-1.4315,-1.4313,-1.4268,-1.4217,-1.4201,-1.4178,-1.4151,-1.4144,-1.4122,-1.4111,-1.4093,-1.4231,-1.4231,-1.4231,-1.4498,-1.4478,-1.4485,-1.4436,-1.4396,-1.4363,-1.4359,-1.4336,-1.4272,-1.4235,-1.4187,-1.4182,-1.4138,-1.4126,-1.4084,-1.4067,-1.4033,0,0]},{"header":{"parameterUnit":"m.s-1","parameterCategory":1,"la1":30.2992,"la2":30.254,"lo1":-89.0895,"lo2":-89.0443,"dy":0.0025,"dx":0.0025,"nx":19,"ny":19,"refTime":"2026-05-10T03:00:00:Z","depth":0,"parameterNumber":3,"parameterNumberName":"V-component_of_WINDS"},"data":[0,0,0,2.5112,2.5114,2.5211,2.5212,2.5321,2.5322,0,0,0,0,0,0,0,0,0,0,0,2.5074,2.5074,2.5112,2.5114,2.5211,2.5212,2.5321,2.5322,0,0,0,0,0,0,0,0,0,0,0,2.5073,2.5074,2.5075,2.5114,2.5211,2.5212,2.5321,2.5253,0,0,0,0,0,0,0,0,0,0,2.5161,2.5116,2.5074,2.5075,2.5115,2.5211,2.5212,2.525,2.5257,2.527,0,2.5279,0,2.5302,2.5328,2.5329,0,0,0,2.5121,2.511,2.5145,2.5075,2.5116,2.5211,2.517,2.5254,2.5262,2.528,2.5281,2.5286,2.5304,2.5329,2.5329,2.5383,2.5383,0,0,2.5116,2.5086,2.5139,2.515,2.5133,2.5166,2.5172,2.5259,2.5259,2.5282,2.5288,2.5306,2.533,2.533,2.5383,2.5383,0,0,0,2.5096,2.5082,2.5115,2.5145,2.5163,2.5169,2.5176,2.5255,2.5268,2.529,2.5307,2.533,2.5331,2.5383,2.5383,2.535,0,0,0,2.5093,2.507,2.5112,2.5095,2.5161,2.521,2.5169,2.5262,2.5273,2.5307,2.533,2.5332,2.5383,2.5383,2.5351,2.534,0,0,0,2.5071,2.5068,2.5078,2.5093,2.5134,2.521,2.5228,2.5265,2.5283,2.5329,2.5332,2.5383,2.5383,2.5352,2.5342,2.5346,0,0,0,2.5038,2.5047,2.5077,2.5094,2.5133,2.5188,2.5228,2.5271,2.5306,2.5331,2.5383,2.5383,2.5353,2.5343,2.5347,2.5345,2.5341,0,0,2.5033,2.5045,2.5058,2.5088,2.513,2.5176,2.5214,2.5274,2.5305,2.5355,2.5357,2.5351,2.5342,2.5346,2.5328,2.5325,0,0,0,2.5046,2.5055,2.5073,2.5105,2.5151,2.519,2.5248,2.5271,2.5315,2.5325,2.5354,2.535,2.5354,2.5354,2.5351,2.5357,2.5381,2.5382,2.5382,2.4996,2.5036,2.506,2.5112,2.5143,2.5203,2.5232,2.5273,2.5304,2.531,2.5325,2.5309,2.5309,2.5307,2.5312,2.5327,2.5327,2.5326,2.5326,2.4993,2.5012,2.5054,2.5092,2.5135,2.5167,2.5226,2.5247,2.5284,2.5301,2.5306,2.5322,2.5302,2.5309,2.5324,2.5325,2.5325,2.5325,2.5325,2.4965,2.4982,2.5009,2.5061,2.5096,2.5149,2.5183,2.522,2.5255,2.5261,2.5282,2.5283,2.5289,2.5268,2.5268,2.5268,2.5268,2.5268,2.5268,2.4926,2.4958,2.4982,2.5033,2.5059,2.5099,2.5159,2.5187,2.5226,2.5251,2.5251,2.5282,2.5292,2.5294,2.5267,2.5267,2.5267,2.5267,2.5267,2.4909,2.492,2.4956,2.4983,2.5046,2.508,2.5127,2.5179,2.5207,2.5223,2.5253,2.5254,2.5269,2.5272,2.5274,2.5243,2.5243,2.5243,2.5243,2.4887,2.4899,2.4946,2.4986,2.5029,2.5076,2.5118,2.5165,2.5216,2.5236,2.5245,2.5251,2.5252,2.5267,2.527,2.5273,2.5242,2.5242,2.5242,2.488,2.4897,2.4925,2.4975,2.5028,2.5073,2.5113,2.5158,2.5217,2.5243,2.5252,2.5252,2.5262,2.5263,2.529,2.5293,2.5299,0,0]}]]